| time (UTC) | temp C | wind direction | speed KPH | gust KPH | rain 1hr cm | rain 24hr cm | rain mn cm | humidity % | barometer mb |
| 20260506024500 | 12 | 184 | 14.5 | 17.7 | 0.00 | 0.00 | 0.00 | 88 | 1015.6 |
| 20260506023956 | 13 | 198 | 14.5 | 19.3 | 0.00 | 0.00 | 0.00 | 86 | 1015.5 |
| 20260506023453 | 13 | 181 | 17.7 | 17.7 | 0.00 | 0.00 | 0.00 | 86 | 1015.6 |
| 20260506022950 | 12 | 188 | 17.7 | 20.9 | 0.00 | 0.00 | 0.00 | 86 | 1015.5 |
| 20260506022448 | 13 | 183 | 16.1 | 17.7 | 0.00 | 0.00 | 0.00 | 86 | 1015.3 |
| 20260506021945 | 13 | 186 | 17.7 | 20.9 | 0.00 | 0.00 | 0.00 | 86 | 1015.4 |
| 20260506021442 | 13 | 194 | 16.1 | 20.9 | 0.00 | 0.00 | 0.00 | 85 | 1015.3 |
| 20260506020939 | 13 | 190 | 19.3 | 20.9 | 0.00 | 0.00 | 0.00 | 85 | 1015.5 |
| 20260506020437 | 13 | 191 | 16.1 | 20.9 | 0.00 | 0.00 | 0.00 | 85 | 1015.3 |
| 20260506015934 | 13 | 188 | 17.7 | 19.3 | 0.00 | 0.00 | 0.00 | 85 | 1015.5 |
| 20260506015431 | 13 | 192 | 17.7 | 19.3 | 0.00 | 0.00 | 0.00 | 84 | 1015.4 |
| 20260506014928 | 13 | 194 | 17.7 | 20.9 | 0.00 | 0.00 | 0.00 | 84 | 1015.4 |
| 20260506014425 | 13 | 192 | 17.7 | 22.5 | 0.00 | 0.00 | 0.00 | 84 | 1015.5 |
| 20260506013921 | 13 | 188 | 17.7 | 20.9 | 0.00 | 0.00 | 0.00 | 83 | 1015.2 |
| 20260506013420 | 13 | 203 | 17.7 | 19.3 | 0.00 | 0.00 | 0.00 | 84 | 1015.1 |
| 20260506012916 | 13 | 180 | 17.7 | 24.1 | 0.00 | 0.00 | 0.00 | 84 | 1015.1 |
| 20260506012412 | 13 | 192 | 19.3 | 20.9 | 0.00 | 0.00 | 0.00 | 84 | 1015.2 |
| 20260506011910 | 13 | 187 | 20.9 | 20.9 | 0.00 | 0.00 | 0.00 | 84 | 1015.1 |
| 20260506011407 | 13 | 189 | 20.9 | 24.1 | 0.00 | 0.00 | 0.00 | 84 | 1015.2 |
| 20260506010903 | 13 | 201 | 17.7 | 22.5 | 0.00 | 0.00 | 0.00 | 84 | 1015.1 |
| 20260506010402 | 13 | 196 | 19.3 | 22.5 | 0.00 | 0.00 | 0.00 | 84 | 1015.2 |
| 20260506005858 | 13 | 211 | 20.9 | 22.5 | 0.00 | 0.00 | 0.00 | 82 | 1015.0 |
| 20260506005356 | 13 | 189 | 20.9 | 25.7 | 0.00 | 0.00 | 0.00 | 83 | 1015.0 |
| 20260506004851 | 13 | 192 | 19.3 | 24.1 | 0.00 | 0.00 | 0.00 | 83 | 1015.0 |
| 20260506004349 | 13 | 196 | 19.3 | 20.9 | 0.00 | 0.00 | 0.00 | 82 | 1015.1 |
| 20260506003845 | 13 | 186 | 22.5 | 25.7 | 0.00 | 0.00 | 0.00 | 82 | 1015.0 |
| 20260506003341 | 13 | 189 | 17.7 | 25.7 | 0.00 | 0.00 | 0.00 | 82 | 1015.0 |
| 20260506002838 | 13 | 188 | 17.7 | 25.7 | 0.00 | 0.00 | 0.00 | 82 | 1014.9 |
| 20260506002334 | 14 | 186 | 22.5 | 22.5 | 0.00 | 0.00 | 0.00 | 83 | 1015.0 |
| 20260506001830 | 14 | 204 | 19.3 | 22.5 | 0.00 | 0.00 | 0.00 | 82 | 1015.0 |
| 20260506001327 | 14 | 183 | 16.1 | 24.1 | 0.00 | 0.00 | 0.00 | 82 | 1014.9 |
| 20260506000824 | 14 | 193 | 20.9 | 24.1 | 0.00 | 0.00 | 0.00 | 81 | 1015.1 |
| 20260506000323 | 14 | 195 | 19.3 | 25.7 | 0.00 | 0.00 | 0.00 | 80 | 1015.1 |
| 20260505235818 | 14 | 195 | 17.7 | 29.0 | 0.00 | 0.00 | 0.00 | 80 | 1015.1 |
| 20260505235316 | 14 | 203 | 20.9 | 27.4 | 0.00 | 0.00 | 0.00 | 80 | 1015.1 |
| 20260505234813 | 14 | 196 | 22.5 | 24.1 | 0.00 | 0.00 | 0.00 | 80 | 1015.1 |
| 20260505234311 | 14 | 192 | 22.5 | 25.7 | 0.00 | 0.00 | 0.00 | 80 | 1014.9 |
| 20260505233807 | 14 | 200 | 20.9 | 29.0 | 0.00 | 0.00 | 0.00 | 80 | 1014.9 |
| 20260505233305 | 14 | 201 | 19.3 | 27.4 | 0.00 | 0.00 | 0.00 | 81 | 1015.2 |
| 20260505232802 | 14 | 214 | 20.9 | 22.5 | 0.00 | 0.00 | 0.00 | 80 | 1015.1 |
| 20260505232300 | 15 | 191 | 17.7 | 24.1 | 0.00 | 0.00 | 0.00 | 78 | 1015.2 |
| 20260505231756 | 15 | 194 | 16.1 | 29.0 | 0.00 | 0.00 | 0.00 | 80 | 1015.0 |
| 20260505231255 | 15 | 189 | 16.1 | 22.5 | 0.00 | 0.00 | 0.00 | 78 | 1015.1 |
| 20260505230752 | 15 | 213 | 19.3 | 24.1 | 0.00 | 0.00 | 0.00 | 79 | 1015.3 |
| 20260505230249 | 15 | 197 | 12.9 | 25.7 | 0.00 | 0.00 | 0.00 | 77 | 1015.2 |
| 20260505225746 | 16 | 181 | 19.3 | 22.5 | 0.00 | 0.00 | 0.00 | 76 | 1015.0 |
| 20260505225243 | 16 | 199 | 20.9 | 20.9 | 0.00 | 0.00 | 0.00 | 77 | 1015.0 |
| 20260505224738 | 15 | 197 | 22.5 | 32.2 | 0.00 | 0.00 | 0.00 | 76 | 1015.0 |
| 20260505224236 | 15 | 195 | 17.7 | 27.4 | 0.00 | 0.00 | 0.00 | 76 | 1015.1 |
| 20260505223733 | 16 | 216 | 22.5 | 25.7 | 0.00 | 0.00 | 0.00 | 74 | 1015.2 |
| 20260505223229 | 16 | 189 | 19.3 | 25.7 | 0.00 | 0.00 | 0.00 | 76 | 1015.1 |
| 20260505222725 | 16 | 197 | 17.7 | 24.1 | 0.00 | 0.00 | 0.00 | 74 | 1015.1 |
| 20260505222221 | 16 | 241 | 22.5 | 27.4 | 0.00 | 0.00 | 0.00 | 75 | 1015.1 |
| 20260505221719 | 16 | 209 | 19.3 | 25.7 | 0.00 | 0.00 | 0.00 | 75 | 1014.9 |
| 20260505221215 | 16 | 199 | 17.7 | 29.0 | 0.00 | 0.00 | 0.00 | 74 | 1015.2 |
| 20260505220712 | 16 | 207 | 11.3 | 27.4 | 0.00 | 0.00 | 0.00 | 72 | 1015.1 |
| 20260505220210 | 16 | 220 | 20.9 | 25.7 | 0.00 | 0.00 | 0.00 | 74 | 1015.3 |
| 20260505215708 | 17 | 189 | 17.7 | 25.7 | 0.00 | 0.00 | 0.00 | 73 | 1015.1 |
| 20260505215205 | 17 | 203 | 19.3 | 27.4 | 0.00 | 0.00 | 0.00 | 73 | 1015.1 |
| 20260505214703 | 16 | 184 | 12.9 | 25.7 | 0.00 | 0.00 | 0.00 | 72 | 1015.0 |
| 20260505214200 | 16 | 196 | 20.9 | 25.7 | 0.00 | 0.00 | 0.00 | 72 | 1015.2 |
| 20260505213658 | 17 | 197 | 14.5 | 24.1 | 0.00 | 0.00 | 0.00 | 72 | 1015.2 |
| 20260505213154 | 16 | 209 | 19.3 | 29.0 | 0.00 | 0.00 | 0.00 | 72 | 1015.1 |
| 20260505212650 | 16 | 220 | 19.3 | 29.0 | 0.00 | 0.00 | 0.00 | 72 | 1015.1 |
| 20260505212148 | 16 | 195 | 14.5 | 27.4 | 0.00 | 0.00 | 0.00 | 73 | 1015.1 |
| 20260505211645 | 16 | 206 | 19.3 | 29.0 | 0.00 | 0.00 | 0.00 | 71 | 1014.9 |
| 20260505211142 | 17 | 230 | 22.5 | 27.4 | 0.00 | 0.00 | 0.00 | 71 | 1015.1 |
| 20260505210639 | 16 | 226 | 20.9 | 29.0 | 0.00 | 0.00 | 0.00 | 71 | 1015.1 |
| 20260505210135 | 17 | 181 | 14.5 | 24.1 | 0.00 | 0.00 | 0.00 | 74 | 1015.3 |
| 20260505205633 | 16 | 214 | 17.7 | 25.7 | 0.00 | 0.00 | 0.00 | 73 | 1015.1 |
| 20260505205131 | 16 | 205 | 22.5 | 25.7 | 0.00 | 0.00 | 0.00 | 73 | 1015.0 |
| 20260505204627 | 16 | 188 | 17.7 | 20.9 | 0.00 | 0.00 | 0.00 | 74 | 1015.1 |
| 20260505204126 | 15 | 221 | 17.7 | 24.1 | 0.00 | 0.00 | 0.00 | 73 | 1015.1 |
| 20260505203622 | 16 | 225 | 16.1 | 29.0 | 0.00 | 0.00 | 0.00 | 72 | 1015.3 |
| 20260505203119 | 16 | 205 | 16.1 | 24.1 | 0.00 | 0.00 | 0.00 | 73 | 1015.1 |
| 20260505202614 | 16 | 190 | 20.9 | 24.1 | 0.00 | 0.00 | 0.00 | 73 | 1015.1 |
| 20260505202111 | 16 | 191 | 17.7 | 24.1 | 0.00 | 0.00 | 0.00 | 72 | 1015.3 |
| 20260505201607 | 16 | 190 | 16.1 | 25.7 | 0.00 | 0.00 | 0.00 | 74 | 1015.2 |
| 20260505201105 | 17 | 195 | 19.3 | 24.1 | 0.00 | 0.00 | 0.00 | 73 | 1015.1 |
| 20260505200603 | 16 | 225 | 22.5 | 25.7 | 0.00 | 0.00 | 0.00 | 71 | 1015.2 |
| 20260505200100 | 17 | 222 | 22.5 | 24.1 | 0.00 | 0.00 | 0.00 | 70 | 1015.4 |
| 20260505195556 | 16 | 188 | 17.7 | 22.5 | 0.00 | 0.00 | 0.00 | 74 | 1015.4 |
| 20260505195054 | 16 | 218 | 9.7 | 22.5 | 0.00 | 0.00 | 0.00 | 73 | 1015.4 |
| 20260505194550 | 16 | 200 | 17.7 | 22.5 | 0.00 | 0.00 | 0.00 | 73 | 1015.1 |
| 20260505194046 | 17 | 209 | 20.9 | 22.5 | 0.00 | 0.00 | 0.00 | 72 | 1015.4 |
| 20260505193543 | 16 | 219 | 17.7 | 22.5 | 0.00 | 0.00 | 0.00 | 72 | 1015.3 |
| 20260505193040 | 16 | 224 | 20.9 | 22.5 | 0.00 | 0.00 | 0.00 | 72 | 1015.4 |
| 20260505192539 | 16 | 194 | 17.7 | 20.9 | 0.00 | 0.00 | 0.00 | 76 | 1015.4 |
| 20260505192036 | 15 | 197 | 17.7 | 29.0 | 0.00 | 0.00 | 0.00 | 77 | 1015.4 |
| 20260505191534 | 15 | 182 | 14.5 | 24.1 | 0.00 | 0.00 | 0.00 | 77 | 1015.4 |
| 20260505191032 | 15 | 173 | 17.7 | 25.7 | 0.00 | 0.00 | 0.00 | 78 | 1015.3 |
| 20260505190526 | 15 | 215 | 20.9 | 24.1 | 0.00 | 0.00 | 0.00 | 78 | 1015.6 |
| 20260505190023 | 15 | 197 | 16.1 | 24.1 | 0.00 | 0.00 | 0.00 | 78 | 1015.3 |
| 20260505185520 | 14 | 201 | 12.9 | 27.4 | 0.00 | 0.00 | 0.00 | 78 | 1015.3 |
| 20260505185016 | 14 | 191 | 14.5 | 24.1 | 0.00 | 0.00 | 0.00 | 79 | 1015.5 |
| 20260505184513 | 15 | 207 | 19.3 | 24.1 | 0.00 | 0.00 | 0.00 | 79 | 1015.5 |
| 20260505184009 | 15 | 183 | 17.7 | 24.1 | 0.00 | 0.00 | 0.00 | 79 | 1015.3 |
| 20260505183506 | 14 | 195 | 20.9 | 24.1 | 0.00 | 0.00 | 0.00 | 80 | 1015.3 |
| 20260505183003 | 14 | 205 | 20.9 | 22.5 | 0.00 | 0.00 | 0.00 | 79 | 1015.3 |
| 20260505182500 | 14 | 193 | 16.1 | 24.1 | 0.00 | 0.00 | 0.00 | 80 | 1015.3 |
| 20260505181956 | 14 | 199 | 14.5 | 20.9 | 0.00 | 0.00 | 0.00 | 80 | 1015.2 |
| 20260505181453 | 14 | 200 | 17.7 | 22.5 | 0.00 | 0.00 | 0.00 | 79 | 1015.3 |
| 20260505180950 | 15 | 188 | 17.7 | 19.3 | 0.00 | 0.00 | 0.00 | 80 | 1015.2 |
| 20260505180446 | 13 | 194 | 20.9 | 22.5 | 0.00 | 0.00 | 0.00 | 81 | 1015.2 |
| 20260505175943 | 14 | 198 | 19.3 | 24.1 | 0.00 | 0.00 | 0.00 | 80 | 1015.3 |
| 20260505175439 | 13 | 185 | 20.9 | 24.1 | 0.00 | 0.00 | 0.00 | 81 | 1015.3 |
| 20260505174936 | 13 | 191 | 20.9 | 22.5 | 0.00 | 0.00 | 0.00 | 82 | 1015.2 |
| 20260505174434 | 13 | 199 | 19.3 | 24.1 | 0.00 | 0.00 | 0.00 | 81 | 1015.3 |
| 20260505173929 | 13 | 181 | 19.3 | 24.1 | 0.00 | 0.00 | 0.00 | 81 | 1015.2 |
| 20260505173426 | 14 | 188 | 22.5 | 22.5 | 0.00 | 0.00 | 0.00 | 82 | 1015.1 |
| 20260505172923 | 14 | 189 | 20.9 | 22.5 | 0.00 | 0.00 | 0.00 | 81 | 1015.1 |
| 20260505172422 | 14 | 185 | 20.9 | 24.1 | 0.00 | 0.00 | 0.00 | 83 | 1015.1 |
| 20260505171920 | 15 | 186 | 19.3 | 20.9 | 0.00 | 0.00 | 0.00 | 80 | 1015.2 |
| 20260505171418 | 14 | 180 | 19.3 | 19.3 | 0.00 | 0.00 | 0.00 | 78 | 1015.1 |
| 20260505170914 | 14 | 187 | 17.7 | 20.9 | 0.00 | 0.00 | 0.00 | 79 | 1015.0 |
| 20260505170411 | 14 | 181 | 12.9 | 19.3 | 0.00 | 0.00 | 0.00 | 79 | 1015.2 |
| 20260505165906 | 13 | 187 | 17.7 | 20.9 | 0.00 | 0.00 | 0.00 | 80 | 1015.1 |
| 20260505165403 | 13 | 180 | 17.7 | 19.3 | 0.00 | 0.00 | 0.00 | 83 | 1014.9 |
| 20260505164858 | 13 | 189 | 17.7 | 20.9 | 0.00 | 0.00 | 0.00 | 84 | 1015.1 |
| 20260505164355 | 13 | 187 | 17.7 | 20.9 | 0.00 | 0.00 | 0.00 | 81 | 1015.2 |
| 20260505163853 | 13 | 184 | 16.1 | 19.3 | 0.00 | 0.00 | 0.00 | 83 | 1015.1 |
| 20260505163352 | 13 | 180 | 17.7 | 19.3 | 0.00 | 0.00 | 0.00 | 84 | 1015.1 |
| 20260505162850 | 13 | 189 | 19.3 | 20.9 | 0.00 | 0.00 | 0.00 | 84 | 1014.9 |
| 20260505162346 | 13 | 180 | 19.3 | 20.9 | 0.00 | 0.00 | 0.00 | 86 | 1014.8 |
| 20260505161843 | 13 | 184 | 19.3 | 22.5 | 0.00 | 0.00 | 0.00 | 86 | 1015.1 |
| 20260505161340 | 12 | 189 | 17.7 | 20.9 | 0.00 | 0.00 | 0.00 | 86 | 1014.9 |
| 20260505160837 | 12 | 194 | 16.1 | 17.7 | 0.00 | 0.00 | 0.00 | 88 | 1015.1 |
| 20260505160335 | 12 | 192 | 16.1 | 17.7 | 0.00 | 0.00 | 0.00 | 91 | 1015.0 |
| 20260505153314 | 12 | 186 | 12.9 | 17.7 | 0.00 | 0.00 | 0.00 | 95 | 1015.1 |
| 20260505152811 | 12 | 181 | 14.5 | 16.1 | 0.00 | 0.00 | 0.00 | 95 | 1014.8 |
| 20260505152308 | 12 | 180 | 16.1 | 17.7 | 0.00 | 0.00 | 0.00 | 95 | 1015.0 |
| 20260505151802 | 12 | 177 | 16.1 | 16.1 | 0.00 | 0.00 | 0.00 | 96 | 1014.7 |
| 20260505151259 | 12 | 181 | 14.5 | 16.1 | 0.00 | 0.00 | 0.00 | 96 | 1014.9 |
| 20260505150756 | 11 | 180 | 14.5 | 17.7 | 0.00 | 0.00 | 0.00 | 96 | 1014.8 |
| 20260505150253 | 11 | 181 | 14.5 | 16.1 | 0.00 | 0.00 | 0.00 | 97 | 1014.9 |
| 20260505140217 | 11 | 180 | 12.9 | 16.1 | 0.00 | 0.00 | 0.00 | 99 | 1014.7 |
| 20260505130141 | 11 | 184 | 14.5 | 17.7 | 0.00 | 0.00 | 0.00 | 99 | 1014.6 |
| 20260505124631 | 11 | 184 | 14.5 | 16.1 | 0.00 | 0.00 | 0.00 | 99 | 1014.4 |
| 20260505124128 | 11 | 183 | 14.5 | 17.7 | 0.00 | 0.00 | 0.00 | 99 | 1014.3 |
| 20260505123623 | 11 | 183 | 14.5 | 16.1 | 0.00 | 0.00 | 0.00 | 99 | 1014.4 |
| 20260505123120 | 11 | 187 | 12.9 | 17.7 | 0.00 | 0.00 | 0.00 | 99 | 1014.2 |
| 20260505122617 | 11 | 183 | 14.5 | 17.7 | 0.00 | 0.00 | 0.00 | 99 | 1014.3 |
| 20260505122115 | 11 | 178 | 12.9 | 14.5 | 0.00 | 0.00 | 0.00 | 99 | 1014.2 |
| 20260505121611 | 11 | 181 | 14.5 | 14.5 | 0.00 | 0.00 | 0.00 | 99 | 1014.2 |
| 20260505121108 | 11 | 182 | 14.5 | 16.1 | 0.00 | 0.00 | 0.00 | 98 | 1014.2 |
| 20260505120604 | 11 | 184 | 14.5 | 16.1 | 0.00 | 0.00 | 0.00 | 99 | 1014.1 |
| 20260505120100 | 11 | 183 | 12.9 | 14.5 | 0.00 | 0.00 | 0.00 | 99 | 1014.2 |
| 20260505115554 | 11 | 183 | 12.9 | 16.1 | 0.00 | 0.00 | 0.00 | 98 | 1013.9 |
| 20260505115052 | 11 | 185 | 14.5 | 17.7 | 0.00 | 0.00 | 0.00 | 98 | 1014.2 |
| 20260505114549 | 11 | 183 | 12.9 | 16.1 | 0.00 | 0.00 | 0.00 | 98 | 1013.9 |
| 20260505114045 | 11 | 183 | 12.9 | 16.1 | 0.00 | 0.00 | 0.00 | 98 | 1014.0 |
| 20260505113541 | 11 | 182 | 14.5 | 17.7 | 0.00 | 0.00 | 0.00 | 98 | 1013.9 |
| 20260505113038 | 11 | 180 | 12.9 | 14.5 | 0.00 | 0.00 | 0.00 | 98 | 1013.8 |
| 20260505112534 | 11 | 184 | 14.5 | 14.5 | 0.00 | 0.00 | 0.00 | 98 | 1014.1 |
| 20260505112032 | 11 | 186 | 14.5 | 16.1 | 0.00 | 0.00 | 0.00 | 98 | 1014.0 |
| 20260505111526 | 11 | 185 | 12.9 | 16.1 | 0.00 | 0.00 | 0.00 | 98 | 1013.8 |
| 20260505111023 | 11 | 188 | 12.9 | 16.1 | 0.00 | 0.00 | 0.00 | 98 | 1014.0 |
| 20260505110519 | 11 | 184 | 14.5 | 16.1 | 0.00 | 0.00 | 0.00 | 98 | 1014.1 |
| 20260505101952 | 11 | 182 | 12.9 | 14.5 | 0.00 | 0.00 | 0.00 | 98 | 1014.1 |
| 20260505101450 | 11 | 183 | 14.5 | 16.1 | 0.00 | 0.00 | 0.00 | 98 | 1013.9 |
| 20260505100946 | 11 | 185 | 12.9 | 16.1 | 0.00 | 0.00 | 0.00 | 98 | 1013.9 |
| 20260505100443 | 11 | 180 | 12.9 | 14.5 | 0.00 | 0.00 | 0.00 | 98 | 1014.0 |
| 20260505095939 | 11 | 185 | 12.9 | 16.1 | 0.00 | 0.00 | 0.00 | 98 | 1014.1 |
| 20260505095436 | 11 | 185 | 14.5 | 16.1 | 0.00 | 0.00 | 0.00 | 98 | 1014.1 |
| 20260505094932 | 11 | 183 | 12.9 | 14.5 | 0.00 | 0.00 | 0.00 | 98 | 1014.0 |
| 20260505094429 | 11 | 182 | 14.5 | 16.1 | 0.00 | 0.00 | 0.00 | 98 | 1014.0 |
| 20260505093925 | 11 | 180 | 11.3 | 14.5 | 0.00 | 0.00 | 0.00 | 98 | 1014.1 |
| 20260505093422 | 11 | 184 | 14.5 | 16.1 | 0.00 | 0.00 | 0.00 | 98 | 1014.3 |
| 20260505092919 | 11 | 189 | 14.5 | 16.1 | 0.00 | 0.00 | 0.00 | 98 | 1014.4 |
| 20260505092417 | 11 | 189 | 11.3 | 16.1 | 0.00 | 0.00 | 0.00 | 97 | 1014.2 |
| 20260505091915 | 11 | 191 | 12.9 | 16.1 | 0.00 | 0.00 | 0.00 | 97 | 1014.3 |
| 20260505091412 | 11 | 185 | 14.5 | 16.1 | 0.00 | 0.00 | 0.00 | 97 | 1014.2 |
| 20260505090910 | 11 | 183 | 14.5 | 17.7 | 0.00 | 0.00 | 0.00 | 97 | 1014.3 |
| 20260505090408 | 11 | 186 | 14.5 | 16.1 | 0.00 | 0.00 | 0.00 | 97 | 1014.2 |
| 20260505085905 | 11 | 188 | 11.3 | 14.5 | 0.00 | 0.00 | 0.00 | 97 | 1014.4 |
| 20260505085403 | 11 | 191 | 14.5 | 16.1 | 0.00 | 0.00 | 0.00 | 97 | 1014.1 |
| 20260505084901 | 11 | 183 | 14.5 | 16.1 | 0.00 | 0.00 | 0.00 | 97 | 1014.4 |
| 20260505084359 | 11 | 180 | 14.5 | 16.1 | 0.00 | 0.00 | 0.00 | 97 | 1014.6 |
| 20260505083856 | 11 | 183 | 14.5 | 16.1 | 0.00 | 0.00 | 0.00 | 97 | 1014.6 |
| 20260505083354 | 11 | 188 | 14.5 | 16.1 | 0.00 | 0.00 | 0.00 | 97 | 1014.6 |
| 20260505082849 | 11 | 186 | 14.5 | 17.7 | 0.00 | 0.00 | 0.00 | 97 | 1014.6 |
| 20260505082346 | 11 | 181 | 14.5 | 16.1 | 0.00 | 0.00 | 0.00 | 97 | 1014.6 |
| 20260505081843 | 11 | 187 | 14.5 | 16.1 | 0.00 | 0.00 | 0.00 | 97 | 1014.5 |
| 20260505081339 | 11 | 188 | 14.5 | 17.7 | 0.00 | 0.00 | 0.00 | 97 | 1014.7 |
| 20260505080836 | 11 | 184 | 12.9 | 16.1 | 0.00 | 0.00 | 0.00 | 97 | 1014.7 |
| 20260505080332 | 11 | 180 | 14.5 | 16.1 | 0.00 | 0.00 | 0.00 | 97 | 1014.7 |
| 20260505075827 | 11 | 181 | 11.3 | 16.1 | 0.00 | 0.00 | 0.00 | 97 | 1014.8 |
| 20260505075325 | 11 | 185 | 12.9 | 19.3 | 0.00 | 0.00 | 0.00 | 97 | 1014.8 |
| 20260505074822 | 11 | 187 | 14.5 | 16.1 | 0.00 | 0.00 | 0.00 | 97 | 1014.6 |
| 20260505074319 | 11 | 183 | 16.1 | 19.3 | 0.00 | 0.00 | 0.00 | 97 | 1014.8 |
| 20260505073816 | 11 | 182 | 12.9 | 14.5 | 0.00 | 0.00 | 0.00 | 96 | 1014.5 |
| 20260505073314 | 11 | 182 | 12.9 | 16.1 | 0.00 | 0.00 | 0.00 | 97 | 1014.7 |
| 20260505072811 | 11 | 184 | 14.5 | 16.1 | 0.00 | 0.00 | 0.00 | 96 | 1014.6 |
| 20260505072307 | 11 | 184 | 12.9 | 16.1 | 0.00 | 0.00 | 0.00 | 96 | 1014.5 |
| 20260505071803 | 11 | 182 | 12.9 | 16.1 | 0.00 | 0.00 | 0.00 | 97 | 1014.7 |
| 20260505071300 | 11 | 181 | 12.9 | 14.5 | 0.00 | 0.00 | 0.00 | 97 | 1014.8 |
| 20260505070758 | 11 | 185 | 12.9 | 14.5 | 0.00 | 0.00 | 0.00 | 96 | 1014.7 |
| 20260505070254 | 11 | 183 | 14.5 | 16.1 | 0.00 | 0.00 | 0.00 | 96 | 1014.5 |
| 20260505065749 | 11 | 191 | 12.9 | 17.7 | 0.00 | 0.08 | 0.08 | 96 | 1014.7 |
| 20260505065246 | 11 | 194 | 12.9 | 17.7 | 0.00 | 0.08 | 0.08 | 96 | 1014.6 |
| 20260505064743 | 11 | 190 | 14.5 | 17.7 | 0.00 | 0.08 | 0.08 | 96 | 1014.9 |
| 20260505064241 | 11 | 185 | 14.5 | 17.7 | 0.00 | 0.08 | 0.08 | 96 | 1014.6 |
| 20260505063738 | 11 | 188 | 11.3 | 16.1 | 0.00 | 0.08 | 0.08 | 96 | 1014.7 |
| 20260505063234 | 11 | 184 | 16.1 | 16.1 | 0.00 | 0.08 | 0.08 | 96 | 1014.4 |
| 20260505062731 | 11 | 184 | 14.5 | 17.7 | 0.00 | 0.08 | 0.08 | 96 | 1014.6 |
| 20260505062229 | 11 | 188 | 12.9 | 14.5 | 0.00 | 0.08 | 0.08 | 96 | 1014.6 |
| 20260505061725 | 11 | 184 | 11.3 | 17.7 | 0.00 | 0.08 | 0.08 | 96 | 1014.7 |
| 20260505061223 | 11 | 184 | 14.5 | 17.7 | 0.00 | 0.08 | 0.08 | 96 | 1014.6 |
| 20260505060720 | 12 | 184 | 14.5 | 16.1 | 0.00 | 0.08 | 0.08 | 96 | 1014.5 |
| 20260505060217 | 12 | 179 | 12.9 | 17.7 | 0.00 | 0.08 | 0.08 | 96 | 1014.5 |
| 20260505055713 | 12 | 183 | 12.9 | 17.7 | 0.00 | 0.08 | 0.08 | 96 | 1014.5 |
| 20260505055209 | 12 | 182 | 12.9 | 17.7 | 0.00 | 0.08 | 0.08 | 95 | 1014.7 |
| 20260505054707 | 12 | 183 | 14.5 | 16.1 | 0.00 | 0.08 | 0.08 | 95 | 1014.6 |
| 20260505054205 | 12 | 180 | 12.9 | 16.1 | 0.00 | 0.08 | 0.08 | 95 | 1014.5 |
| 20260505053702 | 12 | 180 | 12.9 | 16.1 | 0.00 | 0.08 | 0.08 | 95 | 1014.8 |
| 20260505053158 | 12 | 182 | 12.9 | 14.5 | 0.00 | 0.08 | 0.08 | 95 | 1014.6 |
| 20260505052655 | 12 | 182 | 12.9 | 16.1 | 0.00 | 0.08 | 0.08 | 95 | 1014.6 |
| 20260505052153 | 12 | 184 | 12.9 | 16.1 | 0.00 | 0.08 | 0.08 | 95 | 1014.9 |
| 20260505051650 | 12 | 186 | 12.9 | 14.5 | 0.00 | 0.08 | 0.08 | 95 | 1014.9 |
| 20260505051148 | 12 | 189 | 14.5 | 16.1 | 0.00 | 0.08 | 0.08 | 95 | 1014.5 |
| 20260505050645 | 12 | 185 | 14.5 | 16.1 | 0.00 | 0.08 | 0.08 | 95 | 1014.9 |
| 20260505050143 | 12 | 174 | 12.9 | 16.1 | 0.00 | 0.08 | 0.08 | 95 | 1014.9 |
| 20260505041613 | 12 | 183 | 12.9 | 16.1 | 0.00 | 0.08 | 0.08 | 95 | 1014.5 |
| 20260505041110 | 12 | 184 | 12.9 | 16.1 | 0.00 | 0.08 | 0.08 | 95 | 1014.6 |
| 20260505040607 | 12 | 186 | 14.5 | 16.1 | 0.00 | 0.08 | 0.08 | 95 | 1014.4 |
| 20260505040105 | 12 | 186 | 14.5 | 17.7 | 0.00 | 0.08 | 0.08 | 94 | 1014.3 |
| 20260505035601 | 12 | 189 | 14.5 | 16.1 | 0.00 | 0.08 | 0.08 | 94 | 1014.1 |
| 20260505035057 | 12 | 184 | 12.9 | 14.5 | 0.00 | 0.08 | 0.08 | 94 | 1014.1 |
| 20260505034554 | 12 | 187 | 12.9 | 14.5 | 0.00 | 0.08 | 0.08 | 94 | 1014.1 |
| 20260505034050 | 12 | 188 | 12.9 | 16.1 | 0.00 | 0.08 | 0.08 | 94 | 1014.0 |
| 20260505033548 | 12 | 185 | 12.9 | 14.5 | 0.00 | 0.08 | 0.08 | 94 | 1013.8 |
| 20260505033046 | 12 | 181 | 14.5 | 14.5 | 0.00 | 0.08 | 0.08 | 94 | 1013.8 |
| 20260505032544 | 12 | 188 | 12.9 | 14.5 | 0.00 | 0.08 | 0.08 | 94 | 1013.5 |
| 20260505032040 | 12 | 182 | 12.9 | 16.1 | 0.00 | 0.08 | 0.08 | 94 | 1013.6 |
| 20260505031537 | 12 | 182 | 11.3 | 14.5 | 0.00 | 0.08 | 0.08 | 94 | 1013.7 |
| 20260505031033 | 12 | 197 | 16.1 | 16.1 | 0.00 | 0.08 | 0.08 | 93 | 1013.5 |
| 20260505030530 | 12 | 183 | 12.9 | 17.7 | 0.00 | 0.08 | 0.08 | 93 | 1013.7 |
| 20260505030026 | 12 | 188 | 14.5 | 16.1 | 0.00 | 0.08 | 0.08 | 93 | 1013.6 |
| 20260505025522 | 12 | 169 | 11.3 | 17.7 | 0.00 | 0.08 | 0.08 | 92 | 1013.7 |
| 20260505025022 | 13 | 183 | 14.5 | 17.7 | 0.00 | 0.08 | 0.08 | 92 | 1013.6 |